Meteopurmerend
purmerend
Purmerend - Baaienwijk



My webcam  My webcam


waarschuwing voor Onweer Meer informatie blitzortung!


Regen radar Meer informatie rain snow radar


Bezoek onze andere website:

CandyAppleRed WebdesignWebdesign Purmerend Candy Apple Red

MeteopurmerendBlog

Template documentation
and downloads



Onweer van: 26-07-2021 13:00 tot: 21:00 waarschuwing voor: Onweer niveau: Geel info button
Enkele onweersbuien, lokaal met hagel en veel neerslag in korte tijd.Kans op blikseminslag, hagel en veel neerslag in korte tijd.Verkeer en buitenactiviteiten kunnen hinder ondervinden.Mijd open water en open gebied, schuil niet onder bomen.Volg weerberichten en waarschuwingen.

15 daagse weersverwachting Sint-Niklaas (BE)

  • Overzicht
  • Per uur
  • 15 dagen
  • Extra
  • Vergelijk
  • Kaarten
  • Dagkaart
  • Meer »
  • Info
  • Statistieken
  • Directe link
    Temp 6h Neerslag Wind  
 06:02     21:39    Daglengte: 15:37 Vandaag
20:00
19°
3.4 mm
3
 06:04     21:37    Daglengte: 15:33 Morgen
02:00
16°
 
3
08:00
16°
 
3
14:00
21°
4.3 mm
4
warningclass
20:00
18°
7.4 mm
4
warningclass
 06:05     21:36    Daglengte: 15:31 Woensdag 28 Jul
02:00
16°
 
4
08:00
16°
 
6
14:00
20°
14.1 mm
7
20:00
19°
8.7 mm
6
 06:07     21:34    Daglengte: 15:27 Donderdag 29 Jul
02:00
15°
9.2 mm
6
08:00
15°
 
7
Locatie info
Region: Flandern
Latitude: 51.1644°N
Longitude: 4.1415°E
21 masl
Postcode: 9100
Temp/Neerslag /Baro Onweer/Dauwpunt
    Temp Baro 1h Neerslag Dauwpunt Wind UV Bewolking  
 06:02     21:39    Daglengte: 15:37 Vandaag
16:00
19°
1009.9 hPa 0.7 mm
82%
16.8°
4
Windvlaag: 4 m/s
74% warningclass
17:00
19°
1010.1 hPa 1.4 mm
82%
16.7°
4
Windvlaag: 3.9 m/s
79% warningclass
18:00
18°
1010.2 hPa
82%
16.5°
3
Windvlaag: 1.3 m/s
70%
19:00
19°
1010.2 hPa
81%
16.5°
3
Windvlaag: 1.7 m/s
30%
20:00
19°
1010.3 hPa
77%
15.4°
3
Windvlaag: 2.3 m/s
24%
21:00
18°
1010.7 hPa
29%
15.6°
3
Windvlaag: 3.7 m/s
19%
22:00
17°
1011.2 hPa
14%
15.9°
2
Windvlaag: 3.5 m/s
39%
23:00
17°
1011.5 hPa
14%
15.8°
2
Windvlaag: 3.3 m/s
60%
 06:04     21:37    Daglengte: 15:33 Morgen
00:00
16°
1011.5 hPa
14%
15.8°
2
Windvlaag: 2.2 m/s
54%
01:00
16°
1011.3 hPa
14%
15.7°
2
Windvlaag: 3.9 m/s
17%
02:00
16°
1011.3 hPa
14%
15.4°
3
Windvlaag: 4.8 m/s
16%
03:00
16°
1011.2 hPa
14%
15.0°
3
Windvlaag: 5 m/s
7%
04:00
15°
1011.1 hPa
14%
14.7°
3
Windvlaag: 5.7 m/s
11%
05:00
15°
1010.8 hPa
14%
14.3°
3
Windvlaag: 5.4 m/s
35%
06:00
15°
1010.6 hPa
14%
14.2°
3
Windvlaag: 5.4 m/s
59%
07:00
15°
1010.6 hPa
17%
14.7°
3
Windvlaag: 6 m/s
79%
08:00
16°
1010.7 hPa
16%
14.9°
3
Windvlaag: 6.2 m/s
78%
09:00
17°
1010.8 hPa
17%
15.5°
4
Windvlaag: 6.5 m/s
80%
10:00
18°
1011.0 hPa
18%
16.0°
4
Windvlaag: 6.6 m/s
76%
11:00
19°
1010.8 hPa
17%
15.9°
4
Windvlaag: 5.7 m/s
68%
12:00
20°
1010.8 hPa 1.9 mm
80%
15.1°
4
Windvlaag: 5.5 m/s
83%
13:00
20°
1010.4 hPa
80%
14.0°
4
Windvlaag: 5 m/s
53%
14:00
21°
1010.3 hPa 2.4 mm
78%
16.0°
4
Windvlaag: 7.9 m/s
58% warningclass
15:00
20°
1010.1 hPa 2.1 mm
82%
17.9°
5
Windvlaag: 8.7 m/s
75%
16:00
20°
1009.8 hPa
82%
17.3°
5
Windvlaag: 8.3 m/s
82% warningclass
17:00
20°
1009.5 hPa 3.0 mm
82%
16.4°
5
Windvlaag: 8 m/s
79%
18:00
19°
1009.4 hPa 2.3 mm
77%
16.4°
4
Windvlaag: 7.8 m/s
68%
19:00
19°
1009.3 hPa
30%
16.5°
4
Windvlaag: 5.6 m/s
74%
20:00
18°
1009.3 hPa
75%
15.8°
4
Windvlaag: 4.6 m/s
63%
21:00
18°
1009.3 hPa
80%
15.9°
3
Windvlaag: 5 m/s
68%
22:00
17°
1009.5 hPa
76%
16.4°
4
Windvlaag: 6.8 m/s
61%
23:00
17°
1009.7 hPa
76%
14.9°
4
Windvlaag: 6.9 m/s
67%
 06:05     21:36    Daglengte: 15:31 Woensdag 28 Jul
00:00
17°
1009.6 hPa
81%
14.7°
4
Windvlaag: 7.6 m/s
72%
01:00
16°
1009.3 hPa
82%
14.6°
4
Windvlaag: 8.2 m/s
78%
02:00
16°
1009.0 hPa
72%
14.6°
4
Windvlaag: 9 m/s
45%
03:00
16°
1008.8 hPa
27%
14.3°
4
Windvlaag: 8.5 m/s
59%
04:00
16°
1008.5 hPa
70%
14.0°
4
Windvlaag: 9 m/s
62%
05:00
15°
1008.4 hPa
67%
13.6°
4
Windvlaag: 9.1 m/s
54%
06:00
15°
1008.3 hPa
16%
13.6°
5
Windvlaag: 9.2 m/s
54%
07:00
15°
1008.5 hPa
82%
13.4°
6
Windvlaag: 9.3 m/s
57%
08:00
16°
1008.6 hPa
82%
13.5°
6
Windvlaag: 9.7 m/s
54%
09:00
16°
1008.6 hPa
82%
13.6°
7
Windvlaag: 10.6 m/s
57%
10:00
17°
1008.9 hPa
26%
13.6°
7
Windvlaag: 10.6 m/s
61%
11:00
18°
1008.7 hPa 4.4 mm
85%
13.8°
7
Windvlaag: 10.5 m/s
83%
12:00
18°
1008.7 hPa 2.5 mm
90%
13.0°
7
Windvlaag: 10 m/s
39%
13:00
19°
1008.9 hPa 4.5 mm
99%
13.3°
8
Windvlaag: 9.2 m/s
53%
14:00
20°
1008.9 hPa 2.7 mm
100%
12.4°
7
Windvlaag: 8.2 m/s
81%
15:00
19°
1009.1 hPa 2.9 mm
100%
12.3°
7
Windvlaag: 8.3 m/s
26%
16:00
20°
1009.1 hPa 2.7 mm
100%
12.8°
7
Windvlaag: 8.6 m/s
64%
17:00
20°
1009.2 hPa 3.0 mm
100%
11.6°
7
Windvlaag: 9.3 m/s
49%
18:00
20°
1009.0 hPa
90%
9.0°
7
Windvlaag: 8.6 m/s
19%
19:00
19°
1008.8 hPa
100%
10.8°
7
Windvlaag: 8.1 m/s
37%
20:00
19°
1008.7 hPa
77%
10.2°
6
Windvlaag: 8.4 m/s
3%
21:00
18°
1008.9 hPa
24%
8.5°
6
Windvlaag: 7.8 m/s
17%
22:00
17°
1009.1 hPa 4.6 mm
22%
10.7°
5
Windvlaag: 8.9 m/s
70%
23:00
16°
1009.1 hPa 4.6 mm
21%
10.6°
5
Windvlaag: 8.8 m/s
72%
 06:07     21:34    Daglengte: 15:27 Donderdag 29 Jul
00:00
16°
1008.8 hPa
21%
11.5°
6
Windvlaag: 8.5 m/s
52%
01:00
15°
1008.5 hPa
21%
11.9°
6
Windvlaag: 9.5 m/s
13%
02:00
15°
1008.2 hPa
21%
12.0°
6
Windvlaag: 10.5 m/s
67%
03:00
15°
1007.8 hPa
24%
12.2°
6
Windvlaag: 10.7 m/s
64%
04:00
14°
1007.7 hPa
24%
12.3°
6
Windvlaag: 11.2 m/s
59%
05:00
14°
1007.7 hPa
24%
12.3°
6
Windvlaag: 11 m/s
59%
06:00
14°
1008.0 hPa
22%
12.3°
6
Windvlaag: 10.4 m/s
68%
07:00
14°
1008.3 hPa
21%
11.6°
7
Windvlaag: 10 m/s
69%
08:00
15°
1008.6 hPa
22%
11.3°
7
Windvlaag: 10.4 m/s
60%
09:00
16°
1010.3 hPa
24%
11.7°
7
Windvlaag: 13.9 m/s
59%
10:00
17°
1010.3 hPa
24%
11.4°
7
Windvlaag: 12.9 m/s
59%
11:00
18°
1010.6 hPa
24%
10.4°
7
Windvlaag: 13.4 m/s
18%
12:00
19°
1010.6 hPa
24%
10.2°
7
Windvlaag: 13.4 m/s
32%
13:00
19°
1010.8 hPa
24%
10.4°
8
Windvlaag: 13.8 m/s
20%
14:00
20°
1010.8 hPa
24%
11.0°
8
Windvlaag: 14 m/s
65%
Temp/Neerslag /Baro Onweer/Dauwpunt
    Temp Baro Neerslag Dauwpunt Wind Bewolking  
 06:02     21:39    Daglengte: 15:37 Vandaag
17:00
19°
1010.1 hPa 3.4 mm 16.7°
4
79% warningclass
20:00
19°
1010.3 hPa   15.4°
3
24%
23:00
17°
1011.5 hPa   15.8°
2
60%
 06:04     21:37    Daglengte: 15:33 Morgen
02:00
16°
1011.3 hPa   15.4°
3
16%
05:00
15°
1010.8 hPa   14.3°
3
35%
08:00
16°
1010.7 hPa   14.9°
3
78%
11:00
19°
1010.8 hPa   15.9°
4
68%
14:00
21°
1010.3 hPa 4.3 mm 16.0°
4
58% warningclass
17:00
20°
1009.5 hPa 5.1 mm 16.4°
5
79%
20:00
18°
1009.3 hPa 2.3 mm 15.8°
4
63% warningclass
23:00
17°
1009.7 hPa   14.9°
4
67%
 06:05     21:36    Daglengte: 15:31 Woensdag 28 Jul
02:00
16°
1009.0 hPa   14.6°
4
45%
05:00
15°
1008.4 hPa   13.6°
4
54%
08:00
16°
1008.6 hPa   13.5°
6
54%
11:00
18°
1008.7 hPa 4.4 mm 13.8°
7
83%
14:00
20°
1008.9 hPa 9.7 mm 12.4°
7
81%
17:00
20°
1009.2 hPa 8.7 mm 11.6°
7
49%
20:00
19°
1008.7 hPa   10.2°
6
3%
23:00
16°
1009.1 hPa 9.2 mm 10.6°
5
72%
 06:07     21:34    Daglengte: 15:27 Donderdag 29 Jul
02:00
15°
1008.2 hPa   12.0°
6
67%
05:00
14°
1007.7 hPa   12.3°
6
59%
08:00
15°
1008.6 hPa   11.3°
7
60%
11:00
18°
1010.6 hPa   10.4°
7
18%
14:00
20°
1010.8 hPa   11.0°
8
65%
17:00
20°
1011.6 hPa 12.6 mm 10.5°
8
1%
20:00
18°
1011.8 hPa 12.6 mm 10.1°
7
1%
23:00
15°
1012.1 hPa 12.6 mm 8.8°
5
0%
 06:08     21:33    Daglengte: 15:25 Vrijdag 30 Jul
02:00
13°
1012.0 hPa 12.6 mm 9.2°
4
0%
05:00
12°
1011.7 hPa 12.6 mm 9.6°
4
0%
08:00
14°
1011.9 hPa 12.6 mm 10.8°
4
0%
11:00
19°
1011.3 hPa 12.6 mm 11.2°
4
1%
14:00
22°
1010.0 hPa 12.6 mm 10.9°
4
1%
17:00
22°
1008.7 hPa 12.6 mm 12.9°
4
1%
20:00
19°
1007.7 hPa 13.3 mm 14.6°
3
1%
23:00
16°
1008.3 hPa 14.0 mm 14.6°
3
1%
 06:10     21:31    Daglengte: 15:21 Zaterdag 31 Jul
02:00
14°
1008.0 hPa 14.0 mm 13.2°
3
1%
05:00
12°
1006.6 hPa 14.0 mm 10.7°
4
0%
08:00
14°
1005.6 hPa 14.0 mm 11.5°
6
0%
11:00
14°
1004.6 hPa 14.4 mm 11.9°
9
1%
14:00
17°
1004.5 hPa 15.7 mm 13.5°
9
1%
17:00
20°
1005.6 hPa 16.4 mm 11.5°
9
0%
20:00
18°
1007.2 hPa 16.4 mm 12.4°
5
0%
23:00
14°
1008.3 hPa 16.4 mm 11.1°
3
0%
 06:11     21:29    Daglengte: 15:18 Zondag 01 Aug
02:00
14°
1007.8 hPa 16.4 mm 12.0°
4
0%
05:00
13°
1007.2 hPa 16.6 mm 11.7°
4
1%
08:00
14°
1007.1 hPa 16.6 mm 12.6°
5
1%
11:00
17°
1007.9 hPa 17.4 mm 12.9°
7
1%
14:00
19°
1008.7 hPa 17.5 mm 9.3°
7
1%
17:00
18°
1009.6 hPa 17.7 mm 9.7°
6
1%
20:00
16°
1011.1 hPa 18.2 mm 11.3°
5
1%
23:00
13°
1013.1 hPa 18.2 mm 9.4°
3
0%
 06:12     21:28    Daglengte: 15:16 Maandag 02 Aug
02:00
12°
1014.1 hPa 18.2 mm 8.8°
2
0%
05:00
11°
1014.6 hPa 18.2 mm 8.8°
2
0%
08:00
13°
1015.5 hPa 18.2 mm 9.6°
2
0%
11:00
15°
1016.7 hPa 18.2 mm 10.2°
3
1%
14:00
17°
1016.5 hPa 36.5 mm 10.3°
1
1%
20:00
18°
1015.4 hPa 36.8 mm 10.4°
1
1%
 06:14     21:26    Daglengte: 15:12 Dinsdag 03 Aug
02:00
12°
1016.0 hPa 37.6 mm 9.8°
2
0%
08:00
13°
1016.3 hPa 37.6 mm 8.3°
4
1%
14:00
21°
1015.4 hPa 37.6 mm 9.6°
5
1%
20:00
20°
1014.3 hPa 37.6 mm 12.0°
4
1%
 06:15     21:24    Daglengte: 15:09 Woensdag 04 Aug
02:00
15°
1013.5 hPa 37.7 mm 11.9°
4
1%
08:00
16°
1011.8 hPa 37.7 mm 11.0°
5
1%
14:00
22°
1010.2 hPa 37.7 mm 11.9°
8
1%
20:00
19°
1009.8 hPa 39.4 mm 11.6°
7
0%
 06:17     21:23    Daglengte: 15:06 Donderdag 05 Aug
02:00
14°
1010.2 hPa 39.7 mm 11.8°
5
0%
08:00
15°
1009.0 hPa 39.7 mm 12.6°
5
1%
14:00
20°
1013.3 hPa 1.9 mm 12.7°
3
61%
20:00
19°
1012.6 hPa 1.3 mm 12.9°
2
60%
 06:18     21:21    Daglengte: 15:03 Vrijdag 06 Aug
02:00
15°
1012.8 hPa 0.5 mm 11.6°
3
56%
08:00
15°
1012.4 hPa 0.7 mm 12.2°
4
56%
14:00
21°
1012.9 hPa 0.5 mm 12.9°
5
52%
20:00
18°
1012.9 hPa 1.2 mm 12.6°
4
48%
 06:20     21:19    Daglengte: 14:59 Zaterdag 07 Aug
02:00
14°
1013.8 hPa 0.2 mm 11.4°
3
44%
08:00
15°
1013.4 hPa 0.3 mm 12.0°
3
55%
14:00
20°
1013.3 hPa 1.3 mm 12.6°
4
57%
20:00
18°
1013.0 hPa 1.2 mm 13.2°
3
61%
 06:22     21:17    Daglengte: 14:55 Zondag 08 Aug
02:00
14°
1013.6 hPa 0.7 mm 12.0°
2
51%
08:00
15°
1013.4 hPa 0.6 mm 12.4°
3
62%
14:00
20°
1013.8 hPa 1.1 mm 13.1°
4
65%
20:00
19°
1013.9 hPa 0.7 mm 12.5°
3
64%
 06:23     21:15    Daglengte: 14:52 Maandag 09 Aug
02:00
14°
1015.4 hPa 0.2 mm 11.2°
2
46%
08:00
15°
1015.9 hPa 0.3 mm 11.8°
3
42%
14:00
21°
1016.7 hPa 0.2 mm 12.4°
3
52%
20:00
19°
1016.4 hPa 0.7 mm 12.8°
3
50%
 06:25     21:14    Daglengte: 14:49 Dinsdag 10 Aug
02:00
15°
1017.4 hPa 0.2 mm 11.4°
2
50%
08:00
15°
1017.4 hPa 0.1 mm 11.9°
2
51%
14:00
21°
1017.6 hPa 0.6 mm 12.8°
3
56%
  CAPE Lifted Index Hail Supercell Tornado SRH 3km CL BTM PRES CL TOP PRES Swiss DWD icon SMHI TS
 06:02     21:39    Daglengte: 15:37 Vandaag
16:00 965 J/kg -3.5 K 0 % 0 % 0 % 0 m²/s² 0 0 -2.48 80
17:00 460 J/kg -2.6 K 0 % 0 % 0 % 0 m²/s² 0 0 -2.27 80
18:00 731 J/kg -2.6 K 0 % 0 % 0 % 0 m²/s² 0 0 -2.27 80
19:00 791 J/kg -2.9 K 0 % 0 % 0 % 0 m²/s² 0 0 -1.91 80
20:00 313 J/kg -1.3 K 0 % 0 % 0 % 0 m²/s² 0 0 -0.46 3
21:00 115 J/kg -0.5 K 0 % 0 % 0 % 0 m²/s² 0 0 0.28 3
22:00 5 J/kg -0.1 K 0 % 0 % 0 % 0 m²/s² 0 0 0.98 3
23:00 45 J/kg 0.1 K 0 % 0 % 0 % 0 m²/s² 0 0 2.02 3
 06:04     21:37    Daglengte: 15:33 Morgen
00:00 46 J/kg -1.3 K 0 % 0 % 0 % 0 m²/s² 0 0 0.44 3
01:00 9 J/kg -1.5 K 0 % 0 % 0 % 0 m²/s² 0 0 0.69 2
02:00 17 J/kg -0.6 K 0 % 0 % 0 % 0 m²/s² 0 0 1.95 2
03:00 0 J/kg 0.0 K 0 % 0 % 0 % 0 m²/s² 0 0 2.55 2
04:00 0 J/kg 0.0 K 0 % 0 % 0 % 0 m²/s² 0 0 2.85 2
05:00 0 J/kg 1.1 K 0 % 0 % 0 % 0 m²/s² 0 0 4.13 3
06:00 0 J/kg 1.5 K 0 % 0 % 0 % 0 m²/s² 0 0 5.04 3
07:00 0 J/kg -1.4 K 0 % 0 % 0 % 0 m²/s² 0 0 1.69 3
08:00 0 J/kg -2.4 K 0 % 0 % 0 % 0 m²/s² 0 0 -0.48 3
09:00 91 J/kg -2.5 K 0 % 0 % 0 % 0 m²/s² 0 0 -0.58 3
10:00 376 J/kg -2.3 K 0 % 0 % 0 % 0 m²/s² 0 0 -1.01 3
11:00 490 J/kg -2.2 K 0 % 0 % 0 % 0 m²/s² 0 0 -1.09 3
12:00 641 J/kg -2.6 K 0 % 0 % 0 % 0 m²/s² 0 0 -1.97 80
13:00 613 J/kg -2.4 K 0 % 0 % 0 % 0 m²/s² 0 0 -1.8 80
14:00 587 J/kg -2.5 K 0 % 0 % 0 % 0 m²/s² 0 0 -2.11 80
15:00 677 J/kg -2.3 K 0 % 0 % 0 % 0 m²/s² 0 0 -2 80
16:00 288 J/kg -1.0 K 0 % 0 % 0 % 0 m²/s² 0 0 -0.88 95
17:00 259 J/kg -0.8 K 0 % 0 % 0 % 0 m²/s² 0 0 -0.59 80
18:00 401 J/kg -1.4 K 0 % 0 % 0 % 0 m²/s² 0 0 -1.01 61
19:00 639 J/kg -2.1 K 0 % 0 % 0 % 0 m²/s² 0 0 -1.83 3
20:00 578 J/kg -2.4 K 0 % 0 % 0 % 0 m²/s² 0 0 -2.01 3
21:00 602 J/kg -2.5 K 0 % 0 % 0 % 0 m²/s² 0 0 -1.9 3
22:00 543 J/kg -2.2 K 0 % 0 % 0 % 0 m²/s² 0 0 -1.87 3
23:00 496 J/kg -2.1 K 0 % 0 % 0 % 0 m²/s² 0 0 -1.71 3
 06:05     21:36    Daglengte: 15:31 Woensdag 28 Jul
00:00 335 J/kg -1.7 K 0 % 0 % 0 % 0 m²/s² 0 0 -0.47 61
01:00 86 J/kg -0.5 K 0 % 0 % 0 % 0 m²/s² 0 0 1.57 61
02:00 17 J/kg 0.2 K 0 % 0 % 0 % 0 m²/s² 0 0 2.39 3
03:00 0 J/kg 0.8 K 0 % 0 % 0 % 0 m²/s² 0 0 2.81 3
04:00 1 J/kg 1.5 K 0 % 0 % 0 % 0 m²/s² 0 0 3.63 3
05:00 0 J/kg 2.9 K 0 % 0 % 0 % 0 m²/s² 0 0 5.54 2
06:00 0 J/kg 3.7 K 0 % 0 % 0 % 0 m²/s² 0 0 6.19 3
07:00 0 J/kg 3.9 K 0 % 0 % 0 % 0 m²/s² 0 0 6.18 3
08:00 0 J/kg 3.4 K 0 % 0 % 0 % 0 m²/s² 0 0 5.95 3
09:00 0 J/kg 3.3 K 0 % 0 % 0 % 0 m²/s² 0 0 6.87 80
10:00 33 J/kg 2.1 K 0 % 0 % 0 % 0 m²/s² 0 0 5.22 3
11:00 79 J/kg 1.5 K 0 % 0 % 0 % 0 m²/s² 0 0 3.69 3
12:00 105 J/kg 1.1 K 0 % 0 % 0 % 0 m²/s² 0 0 3.35 80
13:00 206 J/kg 0.3 K 0 % 0 % 0 % 0 m²/s² 0 0 2.85 2
14:00 236 J/kg 0.0 K 0 % 0 % 0 % 0 m²/s² 0 0 2.61 3
15:00 300 J/kg -0.4 K 0 % 0 % 0 % 0 m²/s² 0 0 2.36 80
16:00 380 J/kg -0.9 K 0 % 0 % 0 % 0 m²/s² 0 0 1.71 3
17:00 269 J/kg -0.2 K 0 % 0 % 0 % 0 m²/s² 0 0 2.71 80
18:00 42 J/kg 2.1 K 0 % 0 % 0 % 0 m²/s² 0 0 5.7 2
19:00 59 J/kg 1.9 K 0 % 0 % 0 % 0 m²/s² 0 0 6.31 2
20:00 75 J/kg 2.4 K 0 % 0 % 0 % 0 m²/s² 0 0 7.05 2
21:00 24 J/kg 4.1 K 0 % 0 % 0 % 0 m²/s² 0 0 4.79 2
22:00 0 J/kg 4.0 K 0 % 0 % 0 % 0 m²/s² 0 0 5.17 2
23:00 0 J/kg 5.9 K 0 % 0 % 0 % 0 m²/s² 0 0 6.11 2
 06:07     21:34    Daglengte: 15:27 Donderdag 29 Jul
00:00 0 J/kg 6.3 K 0 % 0 % 0 % 0 m²/s² 0 0 8.79 2
01:00 18 J/kg 6.4 K 0 % 0 % 0 % 0 m²/s² 0 0 8.83 2
02:00 54 J/kg 6.1 K 0 % 0 % 0 % 0 m²/s² 0 0 10.6 2
03:00 101 J/kg 6.5 K 0 % 0 % 0 % 0 m²/s² 0 0 11.36 2
04:00 85 J/kg 7.2 K 0 % 0 % 0 % 0 m²/s² 0 0 12.33 3
05:00 47 J/kg 7.8 K 0 % 0 % 0 % 0 m²/s² 0 0 12.9 3
06:00 26 J/kg 8.4 K 0 % 0 % 0 % 0 m²/s² 0 0 12.96 3
07:00 40 J/kg 8.3 K 0 % 0 % 0 % 0 m²/s² 0 0 12.41 3
08:00 83 J/kg 8.4 K 0 % 0 % 0 % 0 m²/s² 0 0 13.56 3
09:00 160 J/kg 7.4 K 0 % 0 % 0 % 0 m²/s² 0 0 12.29 3
10:00 193 J/kg 6.6 K 0 % 0 % 0 % 0 m²/s² 0 0 11.13 3
11:00 140 J/kg 5.8 K 0 % 0 % 0 % 0 m²/s² 0 0 8.65 2
12:00 122 J/kg 4.7 K 0 % 0 % 0 % 0 m²/s² 0 0 7.7 2
13:00 116 J/kg 3.2 K 0 % 0 % 0 % 0 m²/s² 0 0 7.76 2
14:00 127 J/kg 1.9 K 0 % 0 % 0 % 0 m²/s² 0 0 6.73 3
Temp Baro Wind Neerslag
  EWN Forecast EWN WRFDA DWD ICON FMI HIRLAM MET Norway GFS
 06:02     21:39    Daglengte: 15:37 Vandaag
17:00 18.7° 1010.1 hPa 4.1 m/s 3.4 mm 18.5° 1009.4 hPa 6.4 m/s 5.2 mm 18.4° 1010.4 hPa 5.0 m/s 4.1 mm 20.7° 1008.9 hPa 2.6 m/s 0.0 mm 20.8° 1009.4 hPa 5.0 m/s
20:00 18.6° 1010.3 hPa 3.1 m/s 0.0 mm 20.3° 1009.3 hPa 4.6 m/s 23.9 mm 18.3° 1010.5 hPa 3.0 m/s 0.8 mm 19.4° 1009.5 hPa 3.1 m/s 0.0 mm 19.6° 1010.1 hPa 3.5 m/s
23:00 16.6° 1011.5 hPa 1.7 m/s 0.0 mm 16.8° 1010.7 hPa 1.4 m/s 23.9 mm 16.7° 1011.8 hPa 1.8 m/s 0.0 mm 16.5° 1010.9 hPa 1.3 m/s 0.0 mm 16.2° 1011.0 hPa 1.6 m/s
 06:04     21:37    Daglengte: 15:33 Morgen
02:00 16.1° 1011.3 hPa 3.2 m/s 0.0 mm 15.3° 1010.1 hPa 2.4 m/s 23.9 mm 15.9° 1011.6 hPa 3.4 m/s 0.0 mm 16.1° 1010.6 hPa 2.1 m/s 0.0 mm 15.4° 1011.5 hPa 2.7 m/s
05:00 15.1° 1010.8 hPa 2.9 m/s 0.0 mm 14.6° 1009.6 hPa 3.3 m/s 23.9 mm 15.1° 1011.4 hPa 2.7 m/s 0.0 mm 14.6° 1009.9 hPa 2.8 m/s 0.0 mm 14.7° 1010.6 hPa 3.1 m/s
08:00 16.1° 1010.7 hPa 3.1 m/s 0.0 mm 16.6° 1009.5 hPa 3.8 m/s 23.9 mm 16.4° 1011.4 hPa 2.9 m/s 0.0 mm 15.7° 1009.7 hPa 2.8 m/s 0.0 mm 16.4° 1010.6 hPa 3.5 m/s
11:00 19.3° 1010.8 hPa 3.9 m/s 0.0 mm 19.6° 1010.1 hPa 2.4 m/s 24.3 mm 19.1° 1011.1 hPa 4.0 m/s 0.0 mm 20.7° 1010.0 hPa 3.8 m/s 0.0 mm 20.1° 1010.3 hPa 3.8 m/s
14:00 20.6° 1010.3 hPa 4.2 m/s 4.3 mm 22.2° 1009.8 hPa 1.5 m/s 25.8 mm 19.9° 1011.1 hPa 4.2 m/s 1.1 mm 22.3° 1008.8 hPa 4.3 m/s 0.0 mm 19.1° 1010.5 hPa 3.0 m/s
17:00 19.6° 1009.5 hPa 4.8 m/s 5.1 mm 20.6° 1009.1 hPa 5.5 m/s 28.6 mm 19.1° 1010.4 hPa 5.4 m/s 3.3 mm 20.1° 1008.1 hPa 4.1 m/s 0.0 mm 22.2° 1009.6 hPa 3.9 m/s
20:00 18.4° 1009.3 hPa 3.7 m/s 2.3 mm 18.8° 1008.8 hPa 2.5 m/s 30.7 mm 18.4° 1009.9 hPa 4.7 m/s 0.2 mm 18.5° 1008.5 hPa 3.8 m/s 0.0 mm 17.9° 1009.1 hPa 2.7 m/s
23:00 17.0° 1009.7 hPa 4.0 m/s 0.0 mm 17.3° 1008.8 hPa 3.2 m/s 34.5 mm 16.9° 1009.8 hPa 4.0 m/s 0.2 mm 17.6° 1010.1 hPa 4.0 m/s 0.0 mm 16.1° 1010.2 hPa 4.8 m/s
 06:05     21:36    Daglengte: 15:31 Woensdag 28 Jul
02:00 16.2° 1009.0 hPa 3.9 m/s 0.0 mm 15.8° 1008.2 hPa 3.9 m/s 34.7 mm 16.4° 1008.6 hPa 3.8 m/s 0.2 mm 15.3° 1010.0 hPa 3.2 m/s 0.0 mm 14.9° 1009.3 hPa 5.1 m/s
05:00 15.5° 1008.4 hPa 4.4 m/s 0.0 mm 14.5° 1007.6 hPa 3.6 m/s 34.7 mm 16.2° 1008.0 hPa 4.3 m/s 0.2 mm 15.2° 1009.0 hPa 3.9 m/s 0.0 mm 15.0° 1009.1 hPa 5.1 m/s
08:00 15.6° 1008.6 hPa 6.3 m/s 0.0 mm 14.9° 1008.3 hPa 5.9 m/s 34.7 mm 16.2° 1007.5 hPa 6.4 m/s 0.2 mm 15.7° 1009.4 hPa 6.0 m/s 0.0 mm 14.7° 1009.7 hPa 5.8 m/s
11:00 17.9° 1008.7 hPa 7.4 m/s 4.4 mm 18.4° 1008.1 hPa 7.0 m/s 34.8 mm 17.9° 1009.1 hPa 7.6 m/s 0.3 mm 17.7° 1009.7 hPa 8.0 m/s
14:00 19.5° 1008.9 hPa 7.5 m/s 9.7 mm 21.2° 1008.0 hPa 8.1 m/s 35.3 mm 19.4° 1009.0 hPa 7.5 m/s 0.5 mm 19.6° 1010.1 hPa 7.9 m/s
17:00 19.7° 1009.2 hPa 7.1 m/s 8.7 mm 21.7° 1008.3 hPa 7.5 m/s 38.4 mm 19.6° 1009.5 hPa 7.0 m/s 1.0 mm 21.4° 1009.2 hPa 7.5 m/s
20:00 19.1° 1008.7 hPa 6.3 m/s 0.0 mm 20.5° 1007.8 hPa 7.1 m/s 38.7 mm 19.0° 1008.8 hPa 6.2 m/s 0.1 mm 18.5° 1008.8 hPa 6.2 m/s
23:00 16.4° 1009.1 hPa 5.4 m/s 9.2 mm 17.2° 1008.5 hPa 5.5 m/s 38.9 mm 16.3° 1009.3 hPa 5.4 m/s 0.0 mm 16.4° 1008.9 hPa 6.3 m/s
 06:07     21:34    Daglengte: 15:27 Donderdag 29 Jul
02:00 15.0° 1008.2 hPa 6.0 m/s 0.0 mm 15.3° 1007.5 hPa 4.9 m/s 39.4 mm 15.2° 1009.2 hPa 5.9 m/s 0.0 mm 14.5° 1008.9 hPa 7.2 m/s
05:00 14.3° 1007.7 hPa 6.0 m/s 0.0 mm 13.5° 1007.1 hPa 5.6 m/s 39.4 mm 14.8° 1009.6 hPa 5.6 m/s 0.0 mm 13.2° 1009.1 hPa 7.0 m/s
08:00 14.5° 1008.6 hPa 7.0 m/s 0.0 mm 14.4° 1007.2 hPa 7.3 m/s 39.4 mm 15.3° 1010.5 hPa 5.8 m/s 0.0 mm 14.1° 1009.4 hPa 7.9 m/s
11:00 18.2° 1010.6 hPa 7.3 m/s 0.0 mm 18.2° 1007.8 hPa 9.0 m/s 39.4 mm 18.2° 1011.3 hPa 6.9 m/s 0.0 mm 17.8° 1010.9 hPa 8.4 m/s
14:00 19.7° 1010.8 hPa 7.7 m/s 0.0 mm 19.7° 1008.4 hPa 10.3 m/s 39.4 mm 19.7° 1011.3 hPa 7.1 m/s 0.0 mm 20.7° 1011.3 hPa 8.0 m/s
17:00 20.1° 1011.6 hPa 7.8 m/s 12.6 mm 20.1° 1011.6 hPa 7.8 m/s 12.6 mm
20:00 18.2° 1011.8 hPa 6.9 m/s 12.6 mm 18.2° 1011.8 hPa 6.9 m/s 12.6 mm
23:00 14.6° 1012.1 hPa 4.9 m/s 12.6 mm 14.6° 1012.1 hPa 4.9 m/s 12.6 mm
 06:08     21:33    Daglengte: 15:25 Vrijdag 30 Jul
02:00 12.7° 1012.0 hPa 4.2 m/s 12.6 mm 12.7° 1012.0 hPa 4.2 m/s 12.6 mm
05:00 11.7° 1011.7 hPa 3.7 m/s 12.6 mm 11.7° 1011.7 hPa 3.7 m/s 12.6 mm
08:00 13.8° 1011.9 hPa 4.2 m/s 12.6 mm 13.8° 1011.9 hPa 4.2 m/s 12.6 mm
11:00 19.1° 1011.3 hPa 4.1 m/s 12.6 mm 19.1° 1011.3 hPa 4.1 m/s 12.6 mm
14:00 22.4° 1010.0 hPa 4.1 m/s 12.6 mm 22.4° 1010.1 hPa 4.1 m/s 12.6 mm
17:00 22.0° 1008.7 hPa 3.6 m/s 12.6 mm 22.0° 1008.7 hPa 3.6 m/s 12.6 mm
20:00 18.7° 1007.7 hPa 3.4 m/s 13.3 mm 18.7° 1007.7 hPa 3.4 m/s 13.3 mm
23:00 15.9° 1008.3 hPa 2.9 m/s 14.0 mm 15.9° 1008.3 hPa 2.9 m/s 14.0 mm
 06:10     21:31    Daglengte: 15:21 Zaterdag 31 Jul
02:00 13.9° 1008.0 hPa 3.1 m/s 14.0 mm 13.9° 1008.0 hPa 3.1 m/s 14.0 mm
05:00 12.4° 1006.6 hPa 3.7 m/s 14.0 mm 12.4° 1006.6 hPa 3.7 m/s 14.0 mm
08:00 14.0° 1005.6 hPa 6.2 m/s 14.0 mm 14.0° 1005.6 hPa 6.2 m/s 14.0 mm
11:00 14.2° 1004.6 hPa 8.8 m/s 14.4 mm 14.2° 1004.6 hPa 8.8 m/s 14.4 mm
14:00 16.6° 1004.5 hPa 9.1 m/s 15.7 mm 16.6° 1004.5 hPa 9.1 m/s 15.7 mm
17:00 20.0° 1005.6 hPa 9.1 m/s 16.4 mm 20.0° 1005.6 hPa 9.1 m/s 16.4 mm
20:00 18.4° 1007.2 hPa 4.5 m/s 16.4 mm 18.4° 1007.2 hPa 4.5 m/s 16.4 mm
23:00 14.3° 1008.3 hPa 3.5 m/s 16.4 mm 14.3° 1008.3 hPa 3.5 m/s 16.4 mm
 06:11     21:29    Daglengte: 15:18 Zondag 01 Aug
02:00 14.3° 1007.8 hPa 4.1 m/s 16.4 mm 14.3° 1007.8 hPa 4.1 m/s 16.4 mm
05:00 12.7° 1007.2 hPa 4.0 m/s 16.6 mm 12.7° 1007.2 hPa 4.0 m/s 16.6 mm
08:00 14.3° 1007.1 hPa 5.3 m/s 16.6 mm 14.3° 1007.1 hPa 5.3 m/s 16.6 mm
11:00 17.5° 1007.9 hPa 7.0 m/s 17.4 mm 17.5° 1007.9 hPa 7.0 m/s 17.4 mm
14:00 19.0° 1008.7 hPa 6.6 m/s 17.5 mm 19.0° 1008.7 hPa 6.6 m/s 17.5 mm
17:00 18.3° 1009.6 hPa 6.5 m/s 17.7 mm 18.3° 1009.6 hPa 6.5 m/s 17.7 mm
20:00 16.3° 1011.1 hPa 4.9 m/s 18.2 mm 16.3° 1011.1 hPa 4.9 m/s 18.2 mm
23:00 12.8° 1013.1 hPa 2.6 m/s 18.2 mm 12.8° 1013.1 hPa 2.6 m/s 18.2 mm
 06:12     21:28    Daglengte: 15:16 Maandag 02 Aug
02:00 11.6° 1014.1 hPa 2.3 m/s 18.2 mm 11.6° 1014.1 hPa 2.3 m/s 18.2 mm
05:00 10.6° 1014.6 hPa 2.4 m/s 18.2 mm 10.6° 1014.6 hPa 2.4 m/s 18.2 mm
08:00 12.9° 1015.5 hPa 2.2 m/s 18.2 mm 12.9° 1015.5 hPa 2.2 m/s 18.2 mm
11:00 15.4° 1016.7 hPa 2.8 m/s 18.2 mm 15.4° 1016.7 hPa 2.8 m/s 18.2 mm
14:00 16.9° 1016.5 hPa 1.4 m/s 18.3 mm 16.9° 1016.5 hPa 1.4 m/s 18.3 mm
20:00 18.2° 1015.4 hPa 0.7 m/s 18.5 mm 18.2° 1015.4 hPa 0.7 m/s 18.5 mm
 06:14     21:26    Daglengte: 15:12 Dinsdag 03 Aug
02:00 12.1° 1016.0 hPa 2.2 m/s 18.8 mm 12.1° 1016.0 hPa 2.2 m/s 18.8 mm
08:00 12.6° 1016.3 hPa 3.8 m/s 18.8 mm 12.6° 1016.3 hPa 3.8 m/s 18.8 mm
14:00 21.4° 1015.4 hPa 5.3 m/s 18.8 mm 21.4° 1015.4 hPa 5.3 m/s 18.8 mm
20:00 19.9° 1014.3 hPa 4.3 m/s 18.8 mm 19.9° 1014.3 hPa 4.3 m/s 18.8 mm
 06:15     21:24    Daglengte: 15:09 Woensdag 04 Aug
02:00 14.9° 1013.5 hPa 4.1 m/s 18.8 mm 14.9° 1013.5 hPa 4.1 m/s 18.8 mm
08:00 15.8° 1011.8 hPa 5.0 m/s 18.8 mm 15.8° 1011.8 hPa 5.0 m/s 18.8 mm
14:00 21.9° 1010.2 hPa 8.2 m/s 18.9 mm 21.9° 1010.2 hPa 8.2 m/s 18.9 mm
20:00 19.4° 1009.8 hPa 7.4 m/s 19.9 mm 19.4° 1009.8 hPa 7.4 m/s 19.8 mm
 06:17     21:23    Daglengte: 15:06 Donderdag 05 Aug
02:00 14.2° 1010.2 hPa 5.0 m/s 19.9 mm 14.2° 1010.2 hPa 5.0 m/s 19.8 mm
08:00 14.8° 1009.0 hPa 5.1 m/s 19.9 mm 14.8° 1009.0 hPa 5.1 m/s 19.8 mm
14:00 20.1° 1013.3 hPa 3.2 m/s 1.9 mm
20:00 18.8° 1012.6 hPa 2.5 m/s 1.3 mm
 06:18     21:21    Daglengte: 15:03 Vrijdag 06 Aug
02:00 14.6° 1012.8 hPa 2.8 m/s 0.5 mm
08:00 14.9° 1012.4 hPa 3.6 m/s 0.7 mm
14:00 20.6° 1012.9 hPa 5.0 m/s 0.5 mm
20:00 18.5° 1012.9 hPa 3.6 m/s 1.2 mm
 06:20     21:19    Daglengte: 14:59 Zaterdag 07 Aug
02:00 14.1° 1013.8 hPa 3.0 m/s 0.2 mm
08:00 14.6° 1013.4 hPa 3.3 m/s 0.3 mm
14:00 20.5° 1013.3 hPa 4.2 m/s 1.3 mm
20:00 18.5° 1013.0 hPa 3.1 m/s 1.2 mm
 06:22     21:17    Daglengte: 14:55 Zondag 08 Aug
02:00 14.5° 1013.6 hPa 2.3 m/s 0.7 mm
08:00 15.1° 1013.4 hPa 3.0 m/s 0.6 mm
14:00 20.3° 1013.8 hPa 4.0 m/s 1.1 mm
20:00 18.6° 1013.9 hPa 3.0 m/s 0.7 mm
 06:23     21:15    Daglengte: 14:52 Maandag 09 Aug
02:00 14.2° 1015.4 hPa 2.2 m/s 0.2 mm
08:00 14.5° 1015.9 hPa 2.7 m/s 0.3 mm
14:00 20.8° 1016.7 hPa 3.4 m/s 0.2 mm
20:00 19.2° 1016.4 hPa 2.6 m/s 0.7 mm
 06:25     21:14    Daglengte: 14:49 Dinsdag 10 Aug
02:00 14.6° 1017.4 hPa 1.8 m/s 0.2 mm
08:00 15.1° 1017.4 hPa 2.1 m/s 0.1 mm
14:00 21.3° 1017.6 hPa 3.1 m/s 0.6 mm
FMI Hirlam - 7.5 km EWN WRFDA - 12 km DWD ICON - 7 km GFS - 25 km Basiskaart






























































Updatetijd (Europe/Amsterdam) Resolutie Lengte Stap
FMI Hirlam 14:00, 20:00, 02:00, 08:00 7.5 km 49h 1h
EWN WRFDA 10:30, 16:30, 22:30, 04:30 12 km 73h 1h
DWD ICON 11:45, 17:45, 23:45, 05:45 7 km 75h 1h
GFS 14:15, 20:15, 02:15, 08:15 25 km 237h 3h
30+ mm
25-30 mm
20-25 mm
15-20 mm
10-15 mm
6-10 mm
4-6 mm
2-4 mm
1-2 mm
0.5-1 mm
0.2-0.5 mm
0.1-0.2 mm
30+ mm
25-30 mm
20-25 mm
15-20 mm
10-15 mm
6-10 mm
4-6 mm
2-4 mm
1-2 mm
0.5-1 mm
0.2-0.5 mm
0.1-0.2 mm
Sneeuwval
Natte sneeuw
Hagel
Vorst
30+ mm
25-30 mm
20-25 mm
15-20 mm
10-15 mm
6-10 mm
4-6 mm
2-4 mm
1-2 mm
0.5-1 mm
0.2-0.5 mm
0.1-0.2 mm
Sneeuwval
Natte sneeuw
Hagel
Vorst
Onweer
50 mm
40 mm
30 mm
26 mm
22 mm
18 mm
14 mm
10 mm
9 mm
8 mm
7 mm
6 mm
5 mm
4.5 mm
4 mm
3.5 mm
3 mm
2.5 mm
2 mm
1.5 mm
1 mm
0.8 mm
0.6 mm
0.4 mm
0.2 mm
0.05 mm
35°
30°
25°
20°
15°